This is the latest recevied weather packets stored in our database for station/object K2BIG. If no packets are shown the sender has not sent any weather packets the latest 1 day(s).
| Time | Temp. | Humidity | Pressure | Rain* | Wind** | Luminosity | Snow |
|---|---|---|---|---|---|---|---|
| 1778013616 | 29.44° C | 34% | 1005.5 hPa | 0 mm | 3.13 m/s, 203° | - | - |
| 1778013317 | 29.44° C | 35% | 1005.5 hPa | 0 mm | 3.13 m/s, 203° | - | - |
| 1778013017 | 29.44° C | 35% | 1005.6 hPa | 0 mm | 3.13 m/s, 180° | - | - |
| 1778012718 | 29.44° C | 35% | 1005.5 hPa | 0 mm | 2.68 m/s, 158° | - | - |
| 1778012417 | 28.89° C | 36% | 1005.6 hPa | 0 mm | 3.13 m/s, 203° | - | - |
| 1778012117 | 28.89° C | 36% | 1005.6 hPa | 0 mm | 2.68 m/s, 180° | - | - |
| 1778011817 | 28.89° C | 36% | 1005.8 hPa | 0 mm | 2.24 m/s, 225° | - | - |
| 1778011516 | 28.89° C | 37% | 1006.1 hPa | 0 mm | 3.13 m/s, 203° | - | - |
| 1778011217 | 28.89° C | 37% | 1006.1 hPa | 0 mm | 3.13 m/s, 225° | - | - |
| 1778010917 | 28.89° C | 35% | 1006.2 hPa | 0 mm | 2.68 m/s, 203° | - | - |
| 1778010617 | 28.89° C | 36% | 1006.1 hPa | 0 mm | 3.13 m/s, 203° | - | - |
| 1778010316 | 28.89° C | 36% | 1006.1 hPa | 0 mm | 2.68 m/s, 225° | - | - |
| 1778010016 | 28.89° C | 36% | 1006.2 hPa | 0 mm | 3.58 m/s, 203° | - | - |
| 1778009717 | 29.44° C | 38% | 1006.3 hPa | 0 mm | 3.13 m/s, 203° | - | - |
| 1778009416 | 28.89° C | 38% | 1006.3 hPa | 0 mm | 2.68 m/s, 225° | - | - |
| 1778009116 | 28.89° C | 36% | 1006.3 hPa | 0 mm | 3.13 m/s, 225° | - | - |
| 1778008816 | 28.89° C | 37% | 1006.5 hPa | 0 mm | 3.58 m/s, 203° | - | - |
| 1778008516 | 28.89° C | 36% | 1006.4 hPa | 0 mm | 3.13 m/s, 203° | - | - |
| 1778008216 | 29.44° C | 37% | 1006.6 hPa | 0 mm | 4.02 m/s, 203° | - | - |
| 1778007916 | 29.44° C | 37% | 1006.7 hPa | 0 mm | 3.58 m/s, 225° | - | - |
| 1778007616 | 29.44° C | 40% | 1006.7 hPa | 0 mm | 2.68 m/s, 180° | - | - |
| 1778007316 | 29.44° C | 38% | 1006.8 hPa | 0 mm | 3.58 m/s, 203° | - | - |
| 1778007016 | 29.44° C | 39% | 1006.9 hPa | 0 mm | 2.68 m/s, 203° | - | - |
| 1778006716 | 29.44° C | 38% | 1006.9 hPa | 0 mm | 2.68 m/s, 203° | - | - |
| 1778006416 | 29.44° C | 39% | 1007 hPa | 0 mm | 3.13 m/s, 225° | - | - |
* Rain latest hour (hover to see other rain measurements)
** Current wind speed in m/s (hover to see current wind gust speed)